Regional Weather Roundup
Issued by NWS San Diego, CA

Home | Current Version | Previous Version | Text Only | Print | Product List | Glossary On
Versions: 1 2 3 4 5 6 7 8 9 10 11 12 13 14 15 16 17 18 19 20 21 22 23 24 25 26 27
000
ASUS46 KSGX 220811
RWRSGX

SAN DIEGO HOURLY WEATHER ROUNDUP
NATIONAL WEATHER SERVICE SAN DIEGO CA
1200 AM PST MON JAN 22 2018

NOTE: "FAIR" INDICATES FEW OR NO CLOUDS BELOW 12,000 FEET WITH NO
SIGNIFICANT WEATHER AND/OR OBSTRUCTIONS TO VISIBILITY.

CAZ042-043-060-061-PZZ750-775-220900-

GREATER SAN DIEGO AREA

CITY           SKY/WX    TMP DP  RH WIND       PRES   REMARKS
SAN DIEGO AP   MOCLDY    51  36  56 CALM      30.28F
NATIONAL CITY    N/A     49  40  71 CALM      30.29F
CHULA VISTA      N/A     46  40  80 CALM      30.18F
IMPERIAL BEACH PTCLDY    48  38  68 N5        30.27S
BROWN FIELD    PTCLDY    45  38  76 E6        30.25F
MIRAMAR MCAS   PTCLDY    46  35  65 CALM      30.25F
MONTGOMERY FLD PTCLDY    48  33  56 CALM      30.26F
GILLESPIE FLD    N/A     45  37  76 CALM      30.26S

$$

NORTH SAN DIEGO COUNTY

CITY           SKY/WX    TMP DP  RH WIND       PRES   REMARKS
OCEANSIDE AP   CLEAR     41  36  82 CALM      30.27S
OCEANSIDE HBR    N/A     47  38  70 NE7       30.29F
VISTA            N/A     43  36  78 CALM      30.25F
CARLSBAD       PTCLDY    47  35  63 CALM      30.26S
DEL MAR          N/A     49  38  66 CALM      30.28F
LA JOLLA SCRIP   N/A     53  37  53 CALM      30.26F
FALLBROOK        N/A     47  37  66 CALM      30.29S
ESCONDIDO        N/A     46  34  64 CALM      30.28F
SAN MARCOS       N/A     48  35  61 CALM      30.30F
POWAY            N/A     41  34  77 CALM      30.27F

$$

EAST SAN DIEGO COUNTY

CITY           SKY/WX    TMP DP  RH WIND       PRES   REMARKS
RAMONA         CLEAR     33  31  92 CALM      30.25F
SANTEE LAKES     N/A     44  37  77 CALM      30.27S
LA MESA          N/A     49  38  65 CALM      30.20F
JAMUL            N/A     42  37  80 CALM      30.27F
DESCANSO N       N/A     39  26  60 NE6       30.27F WCI  35
MT. LAGUNA OBS   N/A     33  16  49 N10       30.26F WCI  25
CAMPO            N/A     41  19  41 N7        30.21F

$$

ORANGE COUNTY AND THE LOS ANGELES BASIN

CITY           SKY/WX    TMP DP  RH WIND       PRES   REMARKS
JOHN WAYNE AP  PTCLDY    49  39  68 CALM      30.27F
LAGUNA BEACH     N/A     45  38  76 CALM      30.22F
HUNTINGTON BCH   N/A     43  40  90 CALM      30.28F
LOS ALAMITOS   FAIR      44  37  76 E5        30.26F
FULLERTON      PTCLDY    46  36  68 CALM      30.27S
LONG BEACH     CLEAR     50  38  63 CALM      30.27F
L.A. AP        PTCLDY    51  32  48 E6        30.27F
L.A. DOWNTOWN  PTCLDY    51  27  39 CALM      30.27F

$$

THE INLAND EMPIRE

CITY           SKY/WX    TMP DP  RH WIND       PRES   REMARKS
CORONA           N/A     38  31  76 CALM      30.28F
CHINO          PTCLDY    42  34  73 CALM      30.29S
ONTARIO        MOCLDY    45  29  53 CALM      30.27F
SAN BERNARDINO FAIR      46  30  55 CALM      30.28F
RIVERSIDE AP   PTCLDY    45  34  65 NE5       30.27F
MORENO VALLEY    N/A     45  32  60 CALM      28.37F
MARCH ARB      PTCLDY    35  32  87 CALM      30.26F
HORSETHIEF CYN   N/A     45  17  32 W3        30.31F
PERRIS           N/A     46  35  66 CALM      30.23F
HEMET EAST       N/A     43  19  38 CALM      30.35F
FRENCH VALLEY  FAIR      41  32  70 CALM      30.28S
TEMECULA         N/A     43  36  76 CALM      30.31S

$$

SAN BERNARDINO AND RIVERSIDE COUNTY MOUNTAINS

CITY           SKY/WX    TMP DP  RH WIND       PRES   REMARKS
BIG BEAR AP    CLOUDY    21   9  58 CALM      30.26F

$$

SOUTHERN DESERT INCLUDING THE COACHELLA VALLEY

CITY           SKY/WX    TMP DP  RH WIND       PRES   REMARKS
PALM SPRINGS   PTCLDY    49  28  44 N6        30.30F
THOUSAND PALMS   N/A     47  24  40 W1        30.28S
PALM DESERT      N/A     46  31  56 CALM      28.17F
THERMAL        PTCLDY    42  33  70 N3        30.28F
BLYTHE         PTCLDY    43  15  32 NW9       30.28F
IMPERIAL AP    MOCLDY    43  19  38 W3        30.27F
EL CENTRO NAS  PTCLDY    42  11  28 W8        30.29F
YUMA AZ        MOCLDY    47  17  30 N6        30.27F
MEXICALI       CLEAR     45  14  29 NW7       30.28F

$$

UPPER DESERT

CITY           SKY/WX    TMP DP  RH WIND       PRES   REMARKS
VICTORVILLE AP CLOUDY    34  14  44 CALM      30.31S
HESPERIA         N/A     36  19  50 CALM      30.53F
APPLE VALLEY     N/A     29  21  71 CALM      30.44S
PALMDALE       MOCLDY    36  23  59 S7        30.31F WCI  30
LANCASTER      CLOUDY    36  24  62 W5        30.32F WCI  32
EDWARDS AFB    CLOUDY    37  20  50 SW5       30.30S WCI  33
DAGGETT        CLOUDY    37  19  48 W7        30.31F WCI  32
29 PALMS N     CLOUDY    41  17  38 CALM      30.37S
NEEDLES        PTCLDY    48  16  27 NE5       30.30F

$$

REGIONAL REPORTS

CITY           SKY/WX    TMP DP  RH WIND       PRES   REMARKS
SANTA BARBARA  PTCLDY    46  35  65 VRB3      30.28F
SANDBERG       CLOUDY    37  23  56 NE12G17   30.29F WCI  29
LAS VEGAS NV   MOCLDY    40  22  48 CALM      30.31F
PHOENIX AZ     CLEAR     43  24  47 E7        30.24F
TIJUANA        PTCLDY    46  41  81 CALM      30.28F
ENSENADA NW      N/A     54  32  43 CALM      30.18F

$$

OFFSHORE ISLANDS

CITY           SKY/WX    TMP DP  RH WIND       PRES   REMARKS
CATALINA ARPT    N/A     51  39  63 NW9       30.27F
SAN NICOLAS IS PTCLDY    50  32  50 NW10      30.28F

$$

MARINE AND OFFSHORE BUOY REPORTS

STATION/POSITION SKY/WX   TEMP    WIND        PRES    VSBY  SWELL
                          AIR SEA DIR/SP/G                  HT/PER/DIR
                          (F)     (DEG/KT/KT) (MB)    (MI)  (FT/S/D)
TANNER BANKS               58 59              1025.4F
S CLEMENTE BASIN           60 61  340/ 10/ 12 1024.8F         7/280/12
SAN NICOLAS IS.               58                N/A           7/300/13
SO. S. ROSA ISLA           56 56  320/ 19/ 23 1025.1F         8/290/12
W. S. BARBARA CH           56 57  330/ 16/ 19 1025.9F         7/280/13
M. S. BARBARA CH           58 59   CALM  /  2 1026.2
S. MONICA BASIN               60  310/  8/ 10 1024.8F         3/280/13
S PEDRO CHANNEL               60                N/A           2/270/12
CMP PENDLETON NS              60                N/A           2/260/13
OCEANSIDE OFFSHR              61                N/A           2/260/12
TORREY PINES OTR              61                N/A           3/280/13
SAN DIEGO BAY                 64              1025.4F
POINT LOMA SOUTH              60                N/A           3/280/11

$$





USA.gov is the U.S. government's official web portal to all federal, state and local government web resources and services.